Regional Weather Roundup
Issued by NWS

Home | Current Version | Previous Version | Graphics & Text | Print | Product List | Glossary On
Versions: 1 2 3 4 5 6 7 8 9 10 11 12 13 14 15 16 17 18 19 20 21 22 23 24 25 26 27
000
ASUS45 KCYS 291510
RWRWY

WYOMING REGIONAL WEATHER ROUNDUP
NATIONAL WEATHER SERVICE CHEYENNE WY
900 AM MDT FRI APR 29 2016

NOTE:  "FAIR" INDICATES FEW OR NO CLOUDS BELOW 12,000 FEET
WITH NO SIGNIFICANT WEATHER AND/OR OBSTRUCTIONS TO VISIBILITY.

WYZ001-291600-
YELLOWSTONE NATIONAL PARK

CITY           SKY/WX    TMP DP  RH WIND       PRES   REMARKS
LK YELLOWSTONE   N/A     31  20  63 E3        29.94S
W YELLOWSTONE  NOT AVBL

$$
WYZ002>013-054>058-071-098>099-291600-
NORTHERN WYOMING

CITY           SKY/WX    TMP DP  RH WIND       PRES   REMARKS
JACKSON        PTSUNNY   36  30  80 CALM      29.93S
CODY           CLOUDY    37  30  75 CALM      29.98F
GREYBULL       CLOUDY    42  31  64 E8        30.00S
WORLAND        CLOUDY    41  29  62 E3        30.00S
SHERIDAN       PTSUNNY   42  28  57 VRB5      30.02F
BUFFALO          N/A    N/A N/A N/A MISG      30.01F
GILLETTE       CLOUDY    37  33  85 S12       30.04S WCI  29
HULETT         CLOUDY    41  34  75 CALM      30.06S
NEWCASTLE      CLOUDY    34  34 100 S5        30.08R WCI  30

$$
WYZ014>020-022>026-101>103-291600-
CENTRAL WYOMING

CITY           SKY/WX    TMP DP  RH WIND       PRES   REMARKS
BIG PINEY      CLOUDY    34  25  69 VRB3      29.93F
PINEDALE       PTSUNNY   32  28  86 NW9G17    29.94S WCI  24
DUBOIS         CLOUDY    28  23  80 SE6       29.95S WCI  22
LANDER         CLOUDY    34  29  82 N6        29.97F WCI  29
RIVERTON       CLOUDY    36  29  75 NE8       29.98F WCI  30
CASPER         CLOUDY    35  30  82 E12       29.98S WCI  27
DOUGLAS        CLOUDY    36  33  89 SE8       30.02F WCI  30

$$
WYZ021-027>030-104>119-291600-
SOUTHERN WYOMING

CITY           SKY/WX    TMP DP  RH WIND       PRES   REMARKS
EVANSTON       CLOUDY    32  27  81 NE9       29.90S WCI  24
FORT BRIDGER   CLOUDY    32  32 100 E8        29.94F WCI  25
ROCK SPRINGS   CLOUDY    31  26  82 NE12      29.92S WCI  22
DIXON          PTSUNNY   39  32  75 CALM      29.90R
RAWLINS        CLOUDY    32  28  85 NE17      29.92R WCI  21
SARATOGA       PTSUNNY   32  32 100 W6        29.89F WCI  26
LARAMIE        PTSUNNY   30  27  88 SE17      29.90F WCI  18
CHEYENNE       FOG       32  31  96 E7        29.96F VSB<1/4 WCI  26
TORRINGTON     CLOUDY    38  33  82 E7        30.01F WCI  33
PINE BLUFFS    CLOUDY    32  32 100 E7        29.99F FOG     WCI  26

$$




USA.gov is the U.S. government's official web portal to all federal, state and local government web resources and services.